Regional Weather Roundup
Issued by NWS

Home | Current Version | Previous Version | Graphics & Text | Print | Product List | Glossary Off
Versions: 1 2 3 4 5 6 7 8 9 10 11 12 13 14 15 16 17 18 19 20 21 22 23 24 25 26 27 28 29 30 31 32 33 34 35 36 37 38 39 40 41 42 43 44 45 46 47 48 49 50

000
ASUS43 KTOP 281559
RWRKS

WEATHER ROUNDUP FOR KANSAS
NATIONAL WEATHER SERVICE GOODLAND KS
1100 AM CDT WED JUN 28 2017

NOTE:  "FAIR" INDICATES FEW OR NO CLOUDS BELOW 12,000 FEET WITH NO
SIGNIFICANT WEATHER AND/OR OBSTRUCTIONS TO VISIBILITY.

KSZ001>006-013>018-027>032-041>047-281700-
NORTHWEST KANSAS

CITY           SKY/WX    TMP DP  RH WIND       PRES   REMARKS
GOODLAND       SUNNY     78  52  40 N17       29.84F
HAYS           MOSUNNY   83  68  60 SW21G29   29.76S
HILL CITY      SUNNY     82  67  60 SW13G21   29.76F
RUSSELL        SUNNY     83  68  60 S22G33    29.75S
$$

KSZ061>065-074>080-084>089-281700-
SOUTHWEST KANSAS

CITY           SKY/WX    TMP DP  RH WIND       PRES   REMARKS
DODGE CITY     MOSUNNY   84  64  50 SW23G31   29.79S
ELKHART          N/A     81  50  34 NW8         N/A
GARDEN CITY    SUNNY     83  59  44 SW7       29.79R
GREAT BEND     SUNNY     83  69  62 S23G35    29.76F
LIBERAL        SUNNY     85  60  42 SW21G28   29.80F HAZE
$$

KSZ066>073-081>083-090>101-281700-
SOUTHEAST KANSAS

CITY           SKY/WX    TMP DP  RH WIND       PRES   REMARKS
CHANUTE          N/A    N/A N/A N/A MISG      29.89F
COFFEYVILLE    CLOUDY    83  70  64 S14G25    29.90F
HUTCHINSON     SUNNY     83  67  58 S28G37    29.78F
MEDICINE LODGE   N/A     85  66  53 S26G38    29.78F
NEWTON         SUNNY     83  69  62 S31G37    29.81F
PARSONS        CLOUDY    82  68  62 S16G22    29.91F
WICHITA INTL   MOSUNNY   83  70  64 S24G33    29.81F
WICHITA JABRA  MOSUNNY   82  71  69 S24G35    29.82F
WINFIELD       CLOUDY    80  69  69 S17G32    29.86F
$$

KSZ007>012-019>026-033>040-048>060-102>105-281700-
NORTHEAST KANSAS

CITY           SKY/WX    TMP DP  RH WIND       PRES   REMARKS
CONCORDIA      SUNNY     86  69  56 SW22G32   29.74S
EMPORIA        CLOUDY    78  70  76 S26G39    29.80F
LAWRENCE       PTSUNNY   81  70  69 S23G31    29.79F
MANHATTAN      SUNNY     87  70  56 SW21G28   29.74F
OLATHE IND     PTSUNNY   79  68  69 S24G33    29.82F
OLATHE EXE     CLOUDY    79  69  71 SW21G32   29.83F
SALINA         SUNNY     85  70  60 S24G37    29.76S
TOPEKA BILLARD MOSUNNY   81  71  71 S15G30    29.79R
TOPEKA FORBES  MOSUNNY   82  70  66 S24G32    29.79F
$$




USA.gov is the U.S. government's official web portal to all federal, state and local government web resources and services.